{"data":{"norad_id":65718,"epoch":"2026-09-20T03:49:06.002400Z","epoch_age_seconds":179151,"freshness":"STALE","line1":"1 65718U 25214G   26263.15909725  .00000940  00000+0  14237-3 0  9990","line2":"2 65718  49.9891 226.2899 0008451 237.5619 122.4503 14.82876338 53632","mean_motion":14.82876338,"eccentricity":0.0008451,"inclination_deg":49.9891,"raan_deg":226.2899,"arg_perigee_deg":237.5619,"mean_anomaly_deg":122.4503,"bstar":0.00014237,"rev_number":5363,"period_min":97.108569548164,"perigee_km":614.3452674941,"apogee_km":626.1739574485,"semimajor_km":6998.3966124713,"source":"CELESTRAK","updated_at":"2026-09-21T09:00:15.523291Z"}}